Location: Basse Occidentale du Courleau
(48.3833°N, 4.8333°W)
Time: 03:59:50
(UTC+00:00)

Cosmos 2333 Rocket - Pass Details

Date: 05 July 2020
Orbit: 837 x 864 km, 70.8° (Epoch: 11 August)

Event Time Altitude Azimuth Distance (km) Brightness Sun altitude
Rises 22:22:25 0° 211° (SSW) 3,391 5.0 -13.9°
Reaches altitude 10° 22:24:51 10° 213° (SSW) 2,464 4.3 -14.1°
Maximum altitude 22:30:31 77° 299° (WNW) 879 2.4 -14.5°
Drops below altitude 10° 22:36:17 10° 26° (NNE) 2,499 5.2 -15.0°
Sets 22:38:46 0° 28° (NNE) 3,443 5.9 -15.1°
